Weather in Paltoga

Russia / Vologda Oblast     61°00′41″N   36°09′22″E
temp.,
°C
wind,
m/s
gust,
m/s
humid.,
%
clouds,
%
prec.,
mm/h
press.,
hPa
HPBL,
m
13 june, sun
sun1300:00+16se3875100 0.1 1005212
03:00+13se369460 0.6 1005128
06:00+14sse269427 3.1 1004213
09:00+18sse247327 3.4 1004616
12:00+21s045835 0.6 10031360
15:00+20ne236699 0.6 100395
18:00+21s346599 0.0 1004106
21:00+18s3371100 0.0 100521
14 june, mon
mon1400:00+15ssw227698 0.0 100618
03:00+12w3791100 0.0 1008121
06:00+10nw51197100 1.9 1010337
09:00+10nw489499 2.0 1013290
12:00+14n356677 0.0 1014526
15:00+16nne1252100 0.0 1014473
18:00+16nw1251100 0.0 1014295
21:00+13sw3663100 0.0 101592
15 june, tue
tue1500:00+10ssw336890 0.0 101533
03:00+9s336982 0.0 101434
06:00+13s386387 0.0 1013180
09:00+18ssw584952 0.0 1011791
12:00+21sw5841100 0.0 10091406
15:00+21wsw5840100 0.0 10071574
18:00+20w4748100 0.0 1007964
21:00+13sw268099 0.0 1008236
16 june, wed
wed1600:00+13sw3697100 1.6 1009202
03:00+11sw489798 1.7 1009234
06:00+11w479518 0.1 1011226
09:00+13wnw25665 0.1 1013539
12:00+15n35575 0.0 1015635
15:00+16n23495 0.0 1015695
18:00+17w234531 0.0 1016663
21:00+15wsw6125545 0.0 1017374
17 june, thu
thu1700:00+11wsw410715 0.0 1019199
03:00+10wsw49722 0.0 1021153
06:00+12sw356789 0.0 1022134
09:00+16wsw35575 0.0 1022451
12:00+19w47495 0.0 10221028
15:00+20w584469 0.0 10221055
18:00+19wsw484965 0.0 1022676
21:00+16sw37653 0.0 1022105